Content
SEND FEEDBACK

Daily
Averages
Monthly
Summary
Australia

SUTTON, NEW SOUTH WALES


Home > Oceania > Australia > New South Wales
Elevation: 1867 feet     Latitude: 35 18S     Longitude: 149 06E

WEATHER
 
SELECT A DAY
Number of Records: 279,263;   Date Range: 12/6/97 - 8/10/14
 
SHARE

PRINT THIS DATA

[ ← Previous Day ]
WEATHER ALMANAC - JANUARY 31, 2013
[ Next Day → ]
[ °C ]   °F
Weather ElementAverageHighLow
Temperature71.7 °F88 °F (2:00 pm)57.2 °F (5:53 am)
Dewpoint46.4 °F60.8 °F (12:00 am)19.4 °F (6:00 pm)
Humidity53 %100 % (5:53 am)4 % (5:00 pm)
Barometer29.86 in30.01 in (12:00 am)29.68 in (8:00 pm)
Wind Speed9.1 mph24.2 mph (5:00 pm)
Wind Gust32.2 mph (5:08 pm)
Weather ElementAverage
Visibility5.9 mi
Wind DirectionSSW (212.6 °)

Weather ElementTotal
Precipitation---
Cooling Degree Days7.6 (Base 65)
Growing Degree Days22.6 (Base 50)
Averaged from 70 records on January 31, 2013
WEATHER CONDITIONS BREAKOUT
WIND DIRECTION BREAKOUT
WEATHER BY HOUR - JANUARY 31, 2013
[ °C ]   °F
Local TimeTemperatureDewpointHumidityBarometerVisibilityWind DirectionWind SpeedGust SpeedPrecipitationEventsConditions
12:00 AM64.4 °F60.8 °F88 %30.01 in6.2 miEast (100°)5.8 mphOvercast
12:30 AM64.4 °F60.8 °F88 %29.98 in6.2 miESE (110°)4.6 mphOvercast
1:00 AM64.4 °F60.8 °F88 %29.98 in6.2 miSE (140°)4.6 mphOvercast
1:30 AM64.4 °F59.0 °F83 %29.98 in6.2 miSSE (160°)3.5 mphOvercast
2:00 AM65.0 °F60.0 °F81 %29.92 inSSE (160°)3.5 mph
2:00 AM64.4 °F60.8 °F88 %29.98 in6.2 miSSE (160°)3.5 mphOvercast
2:30 AM64.4 °F60.8 °F88 %29.98 in6.2 miESE (110°)3.5 mphOvercast
3:00 AM64.4 °F60.8 °F88 %29.98 in6.2 miESE (110°)4.6 mphMostly Cloudy
3:00 AM64.0 °F60.0 °F84 %29.91 inESE (110°)4.6 mphOvercast
3:05 AM62.6 °F60.8 °F94 %29.98 in6.2 miESE (110°)4.6 mphMostly Cloudy
3:30 AM62.6 °F60.8 °F94 %29.98 in6.2 miESE (110°)5.8 mphMostly Cloudy
3:36 AM62.6 °F60.8 °F94 %29.95 in6.2 miESE (110°)4.6 mphOvercast
3:47 AM62.6 °F60.8 °F94 %29.95 in6.2 miESE (110°)4.6 mphOvercast
4:00 AM62.6 °F59.0 °F88 %29.95 in6.2 miESE (120°)4.6 mphMostly Cloudy
4:18 AM60.8 °F59.0 °F94 %29.95 in6.2 miSE (130°)4.6 mphScattered Clouds
4:30 AM59.0 °F57.2 °F94 %29.95 in4.3 miSE (130°)4.6 mphMostly Cloudy
5:00 AM59.0 °F57.2 °F94 %29.95 in4.3 miESE (110°)5.8 mphScattered Clouds
5:00 AM58.0 °F57.0 °F96 %29.89 inESE (110°)5.8 mph
5:30 AM59.0 °F57.2 °F94 %29.95 in4.3 miESE (110°)5.8 mphPartly Cloudy
5:53 AM57.2 °F57.2 °F100 %29.95 in4.3 miCalmMostly Cloudy
6:00 AM58.0 °F57.0 °F94 %29.89 inCalm
6:00 AM57.2 °F57.2 °F100 %29.95 in5.0 miCalmMostly Cloudy
6:30 AM59.0 °F57.2 °F94 %29.95 in5.0 miCalmMostly Cloudy
7:00 AM60.8 °F59.0 °F94 %29.95 in5.0 miCalmMostly Cloudy
7:30 AM60.8 °F59.0 °F94 %29.95 in6.2 miNorth (350°)5.8 mphMostly Cloudy
8:00 AM62.6 °F60.8 °F94 %29.95 in6.2 miNorth (360°)4.6 mphScattered Clouds
8:00 AM63.0 °F60.0 °F86 %29.89 inNorth4.6 mph
8:30 AM64.4 °F60.8 °F88 %29.95 in6.2 miNorth (10°)1.2 mphScattered Clouds
9:00 AM67.0 °F60.0 °F73 %29.89 inNorth4.6 mph
9:00 AM68.0 °F60.8 °F78 %29.95 in6.2 miNorth (360°)4.6 mphScattered Clouds
9:30 AM69.8 °F59.0 °F68 %29.95 in6.2 miNorth (360°)6.9 mphScattered Clouds
10:00 AM71.6 °F59.0 °F64 %29.95 in6.2 miNW (310°)9.2 mphPartly Cloudy
10:30 AM75.2 °F55.4 °F50 %29.92 in6.2 miNW (320°)8.1 mphPartly Cloudy
11:00 AM78.0 °F53.0 °F31 %29.85 inWNW (290°)12.7 mph
11:00 AM77.0 °F53.6 °F44 %29.92 in6.2 miWNW (290°)12.7 mphPartly Cloudy
11:30 AM78.8 °F44.6 °F30 %29.92 in6.2 miNNW (340°)15.0 mphPartly Cloudy
12:00 PM80.0 °F44.0 °F18 %29.83 inNW (320°)12.7 mph
12:00 PM80.6 °F44.6 °F28 %29.89 inNW (320°)12.7 mphClear
12:30 PM82.4 °F42.8 °F25 %29.89 in6.2 miNW (310°)13.8 mphPartly Cloudy
1:00 PM84.2 °F41.0 °F22 %29.86 inNW (320°)15.0 mphClear
1:30 PM84.2 °F37.4 °F19 %29.86 inNNW (330°)16.1 mphClear
2:00 PM88.0 °F37.0 °F9 %29.77 inNW (320°)18.4 mph
2:00 PM87.8 °F37.4 °F17 %29.83 inNW (320°)18.4 mphClear
2:33 PM86.0 °F32.0 °F14 %29.83 inNW (310°)18.4 mph29.9 mphClear
3:00 PM86.0 °F32.0 °F14 %29.80 inNW (310°)13.8 mphClear
3:00 PM86.0 °F32.0 °F7 %29.75 inNW (310°)13.8 mph
3:30 PM86.0 °F30.2 °F13 %29.80 inNW (310°)13.8 mphClear
4:00 PM86.0 °F32.0 °F14 %29.77 inNW (320°)18.4 mphClear
4:30 PM87.8 °F26.6 °F11 %29.77 inWest (280°)19.6 mphClear
4:55 PM87.8 °F23.0 °F9 %29.77 inNNW (340°)23.0 mphClear
5:00 PM87.0 °F24.0 °F4 %29.70 inNNW (330°)24.2 mph
5:00 PM87.8 °F24.8 °F10 %29.77 inNNW (330°)24.2 mphClear
5:08 PM87.8 °F24.8 °F10 %29.77 inNW (320°)20.7 mph32.2 mphClear
5:30 PM86.0 °F24.8 °F11 %29.77 inNW (310°)19.6 mphClear
6:00 PMNW (320°)21.9 mph
6:00 PM86.0 °F19.4 °F9 %29.74 inNW (320°)21.9 mphClear
6:30 PM86.0 °F23.0 °F10 %29.74 inNNW (330°)18.4 mphClear
7:00 PM84.2 °F21.2 °F10 %29.74 inNW (310°)13.8 mphClear
7:30 PM82.4 °F23.0 °F11 %29.74 inWNW (300°)12.7 mphClear
8:00 PM78.0 °F29.0 °F9 %29.68 inWNW (300°)9.2 mph
8:00 PM77.0 °F28.4 °F17 %29.74 inWNW (300°)9.2 mphClear
8:30 PM77.0 °F28.4 °F17 %29.74 inNW (310°)6.9 mphClear
9:00 PM69.8 °F37.4 °F31 %29.74 in6.2 miSSE (160°)3.5 mph
9:00 PM71.0 °F38.0 °F19 %29.68 inSSE (160°)3.5 mph
9:30 PM66.2 °F41.0 °F40 %29.74 in6.2 miEast (80°)4.6 mph
10:00 PM62.6 °F41.0 °F45 %29.74 in6.2 miESE (120°)5.8 mph
10:30 PM62.6 °F41.0 °F45 %29.74 in6.2 miCalm
11:00 PM62.0 °F43.0 °F39 %29.68 inWest (270°)3.5 mph
11:00 PM62.6 °F42.8 °F48 %29.74 in6.2 miWest (270°)3.5 mph
11:30 PM59.0 °F44.6 °F59 %29.74 in6.2 miESE (110°)3.5 mph
Hourly data recorded from YSCB, located miles away from Sutton, New South Wales







STORIES FROM OUR PARTNERS